VOZ471 YPPH-YBBN

Flight info

Callsign VOZ471
Flight time N/A
Altitude 39000
Route HECTO DCT 33S125E 33S130E 33S135E DCT OJJAY DCT 30S144E DCT EGUBA DCT ENLIP
Aircraft B38M/M-SDE1FGHILORVWXY/HB1

Departure

Time 2026-04-27 09:56
Airport Perth International Airport (YPPH)

Arrival

Time N/A
Airport Brisbane International Airport (YBBN)
Time Latitude Longitude Altitude Speed Heading
2026-04-27 09:32 -31.94164 115.97057 53 ft 0 kts 14°
2026-04-27 09:44 -31.94163 115.97057 53 ft 2 kts 14°
2026-04-27 09:45 -31.94162 115.97058 53 ft 0 kts 14°
2026-04-27 09:45 -31.94171 115.97055 53 ft 2 kts 14°
2026-04-27 09:46 -31.94187 115.97050 49 ft 2 kts 14°
2026-04-27 09:46 -31.94203 115.97047 51 ft 2 kts
2026-04-27 09:46 -31.94219 115.97045 53 ft 2 kts
2026-04-27 09:46 -31.94235 115.97043 52 ft 2 kts 13°
2026-04-27 09:47 -31.94251 115.97039 53 ft 2 kts 13°
2026-04-27 09:47 -31.94267 115.97034 51 ft 2 kts 13°
2026-04-27 09:47 -31.94274 115.97032 52 ft 0 kts 13°
2026-04-27 09:49 -31.94269 115.97034 51 ft 3 kts 13°
2026-04-27 09:50 -31.94235 115.97029 48 ft 7 kts 327°
2026-04-27 09:50 -31.94219 115.96989 53 ft 5 kts 285°
2026-04-27 09:50 -31.94209 115.96945 51 ft 8 kts 284°
2026-04-27 09:50 -31.94194 115.96873 51 ft 9 kts 284°
2026-04-27 09:51 -31.94164 115.96827 50 ft 7 kts 344°
2026-04-27 09:51 -31.94101 115.96838 53 ft 13 kts 14°
2026-04-27 09:51 -31.93997 115.96868 51 ft 17 kts 14°
2026-04-27 09:51 -31.93886 115.96901 52 ft 15 kts 13°
2026-04-27 09:52 -31.93789 115.96929 48 ft 13 kts 14°
2026-04-27 09:52 -31.93707 115.96952 53 ft 12 kts 14°
2026-04-27 09:52 -31.93618 115.96978 52 ft 15 kts 14°
2026-04-27 09:52 -31.93508 115.97010 52 ft 18 kts 14°
2026-04-27 09:53 -31.93376 115.97049 50 ft 21 kts 14°
2026-04-27 09:53 -31.93238 115.97089 53 ft 20 kts 14°
2026-04-27 09:53 -31.93113 115.97126 48 ft 17 kts 14°
2026-04-27 09:53 -31.93006 115.97157 50 ft 15 kts 13°
2026-04-27 09:54 -31.92936 115.97115 53 ft 8 kts 292°
2026-04-27 09:54 -31.92925 115.97069 53 ft 5 kts 284°
2026-04-27 09:54 -31.92916 115.97026 50 ft 8 kts 283°
2026-04-27 09:54 -31.92897 115.96936 51 ft 15 kts 283°
2026-04-27 09:55 -31.92905 115.96834 49 ft 12 kts 206°
2026-04-27 09:55 -31.93023 115.96798 48 ft 33 kts 194°
2026-04-27 09:55 -31.94391 115.96398 54 ft 160 kts 195°
2026-04-27 09:56 -31.95520 115.96065 566 ft 171 kts 196°
2026-04-27 09:56 -31.96708 115.95710 1267 ft 179 kts 194°
2026-04-27 09:56 -31.97916 115.95370 2041 ft 186 kts 192°
2026-04-27 09:56 -31.99250 115.95002 2469 ft 208 kts 193°
2026-04-27 09:57 -32.00763 115.94665 2836 ft 238 kts 180°
2026-04-27 09:57 -32.02391 115.95257 3406 ft 255 kts 143°
2026-04-27 09:57 -32.03533 115.96901 4116 ft 270 kts 112°
2026-04-27 09:57 -32.04040 115.99062 4921 ft 276 kts 103°
2026-04-27 09:58 -32.04544 116.01273 5822 ft 282 kts 104°
2026-04-27 09:58 -32.05069 116.03524 6695 ft 287 kts 105°
2026-04-27 09:58 -32.05599 116.05786 7538 ft 293 kts 105°
2026-04-27 09:58 -32.06212 116.08093 8374 ft 298 kts 114°
2026-04-27 09:59 -32.07113 116.10310 9222 ft 303 kts 117°
2026-04-27 09:59 -32.07930 116.12622 10034 ft 308 kts 105°
2026-04-27 09:59 -32.08473 116.15118 10587 ft 323 kts 105°
2026-04-27 09:59 -32.09065 116.17758 10975 ft 342 kts 105°
2026-04-27 10:00 -32.09694 116.20526 11447 ft 356 kts 105°
2026-04-27 10:00 -32.10342 116.23359 12200 ft 360 kts 105°
2026-04-27 10:00 -32.10999 116.26225 12954 ft 365 kts 105°
2026-04-27 10:00 -32.11657 116.29095 13679 ft 370 kts 105°
2026-04-27 10:01 -32.12332 116.32045 14362 ft 375 kts 105°
2026-04-27 10:01 -32.13017 116.35034 15029 ft 380 kts 105°
2026-04-27 10:01 -32.13709 116.38065 15674 ft 385 kts 105°
2026-04-27 10:01 -32.14411 116.41141 16321 ft 391 kts 105°
2026-04-27 10:02 -32.15120 116.44252 16961 ft 395 kts 105°
2026-04-27 10:02 -32.15838 116.47403 17598 ft 400 kts 105°
2026-04-27 10:02 -32.16562 116.50586 18216 ft 404 kts 105°
2026-04-27 10:02 -32.17292 116.53802 18762 ft 408 kts 104°
2026-04-27 10:03 -32.18019 116.57011 19294 ft 412 kts 104°
2026-04-27 10:03 -32.18763 116.60291 19837 ft 415 kts 104°
2026-04-27 10:03 -32.19512 116.63603 20372 ft 419 kts 104°
2026-04-27 10:03 -32.20267 116.66941 20892 ft 423 kts 104°
2026-04-27 10:04 -32.21026 116.70306 21392 ft 427 kts 103°
2026-04-27 10:04 -32.21793 116.73707 21895 ft 430 kts 103°
2026-04-27 10:04 -32.22564 116.77137 22397 ft 434 kts 103°
2026-04-27 10:04 -32.23340 116.80588 22889 ft 437 kts 103°
2026-04-27 10:05 -32.24124 116.84081 23384 ft 441 kts 103°
2026-04-27 10:05 -32.24911 116.87593 23820 ft 444 kts 103°
2026-04-27 10:05 -32.25702 116.91128 24233 ft 447 kts 103°
2026-04-27 10:05 -32.26488 116.94643 24678 ft 449 kts 103°
2026-04-27 10:06 -32.27285 116.98217 25112 ft 451 kts 102°
2026-04-27 10:06 -32.28084 117.01801 25544 ft 452 kts 102°
2026-04-27 10:06 -32.28887 117.05412 25959 ft 455 kts 102°
2026-04-27 10:06 -32.29693 117.09036 26367 ft 457 kts 102°
2026-04-27 10:07 -32.30500 117.12674 26758 ft 459 kts 102°
2026-04-27 10:07 -32.31311 117.16333 27141 ft 462 kts 102°
2026-04-27 10:07 -32.32125 117.20015 27519 ft 464 kts 102°
2026-04-27 10:07 -32.32943 117.23719 27892 ft 466 kts 102°
2026-04-27 10:08 -32.33751 117.27383 28258 ft 469 kts 101°
2026-04-27 10:08 -32.34576 117.31127 28616 ft 471 kts 101°
2026-04-27 10:08 -32.35403 117.34889 28963 ft 474 kts 101°
2026-04-27 10:08 -32.36234 117.38674 29296 ft 477 kts 101°
2026-04-27 10:09 -32.37068 117.42479 29627 ft 480 kts 101°
2026-04-27 10:09 -32.37908 117.46315 29943 ft 483 kts 101°
2026-04-27 10:09 -32.38750 117.50167 30238 ft 486 kts 101°